Weather in Nolinsk

Russia / Kirov Oblast     57°33′34″N   49°56′08″E
В апреле 2022 года жителям России запретили посещать сайт meteo.paraplan.net по решению Генеральной прокуратуры. Аудитория сайта уменьшилась в 10 раз. Владельцы сайта не видят смысла в поддержке погодного сервера в таких условиях. Сайт будет закрыт в октябре.
temp.,
°C
wind,
m/s
gust,
m/s
humid.,
%
clouds,
%
prec.,
mm/h
press.,
hPa
HPBL,
m
4 october, tue
tue400:00+11s51456100 0.0 1020560
03:00+10sse41157100 0.0 1021408
06:00+9sse41159100 0.0 1022321
09:00+10sse51254100 0.0 1023495
12:00+12s41154100 0.1 1024847
15:00+9sse51476100 0.4 1025581
18:00+10sse5135533 0.0 1025638
21:00+9sse4135287 0.0 1024478
5 october, wed
wed500:00+8sse41350100 0.0 1024420
03:00+7sse41285100 1.4 1024522
06:00+6sse61390100 1.9 1023888
09:00+7sse61284100 1.9 1022736
12:00+9sse51077100 0.0 1021762
15:00+11sse496914 0.0 1020880
18:00+9sse41175100 0.0 1020530
21:00+9se41068100 0.1 1018369
6 october, thu
thu600:00+8sse51168100 0.0 1017492
03:00+7se4895100 0.6 1016423
06:00+7se3997100 2.6 1014423
09:00+8sse2698100 4.2 1013423
12:00+8sse249367 0.4 1013253
15:00+9wsw458078 0.8 1013738
18:00+7wsw378958 0.2 1014300
21:00+5sw24956 0.2 101579
7 october, fri
fri700:00+6sw259595 0.0 1015227
03:00+6sw2598100 0.1 1014216
06:00+6wsw389663 0.1 1014366
09:00+8sw5117988 0.1 1013668
12:00+6ssw51285100 0.3 1012630
15:00+6wsw51194100 2.1 1011653
18:00+8w5129016 0.1 1012687
21:00+8w51291100 0.1 1013611
8 october, sat
sat800:00+8w61288100 0.2 10141002
03:00+8w6128396 0.3 10151071
06:00+8wnw61182100 0.1 1017953
09:00+8w510795 0.1 1019677
12:00+11w686519 0.0 10201116
15:00+11w486897 0.0 10201085
18:00+8sw38865 0.0 1021194
21:00+7sw310945 0.0 1021252